Location: Julian California
(33.0790°N, 116.6010°W)
Time: 05:38:03
(UTC-07:00)

USA 81 - Pass Details

Date: 19 May 2017
Orbit: 785 x 788 km, 85.0° (Epoch: 30 May)

Event Time Altitude Azimuth Distance (km) Brightness Sun altitude
Exits shadow 20:59:55 16° 162° (SSE) 1,960 5.6 -14.8°
Maximum altitude 21:03:59 53° 89° (E) 959 4.2 -15.5°
Drops below altitude 10° 21:09:06 10° 14° (NNE) 2,351 6.8 -16.4°
Sets 21:11:31 0° 10° (N) 3,283 7.7 -16.8°
